Tracking 29892 objects as of 21-Nov-2024
HD Live streaming from Space Station
objects crossing your sky now

BREEZE-M DEB

Track BREEZE-M DEB now!


NORAD ID: 41320
Int'l Code: 2012-026G
Perigee: 10,541.9 km
Apogee: 34,662.2 km
Inclination: 9.7 °
Period: 818.0 minutes
Semi major axis: 28973 km
RCS: Unknown
Launch date: May 17, 2012
Source: Commonwealth of Independent States (former USSR) (CIS)
Launch site: TYURATAM MISSILE AND SPACE COMPLEX (TTMTR)

Note: This is SATELLITE DEBRIS
Your satellite tracking list
Your tracking list is empty




NASA's NSSDC Master Catalog

Two Line Element Set (TLE):
1 41320U 12026G   24324.64252388 -.00000048  00000-0  00000-0 0  9997
2 41320   9.6986 187.6132 4162543 310.9239  19.8979  1.76039962 57312
Source of the keplerian elements: AFSPC